Airfield :
LOGIN :

Register | Disclaimer

   EN    FR    IT 

 










Legend :    VFR   Marginal VFR   IFR   Intensive IFR   Very Intensive IFR
Visi :
Ceiling :
>= 8 km
>= 3000ft
5 to 8 km
1000 to 3000 ft
1500m to 5 km
500 to 1000 ft
800 to 1500m
200 to 500 ft
< 800m
< 200 ft
Symbols :   Thunderstorms  Fog  Heavy snow  Heavy precipitations  Wind > 20 kt
SIGMETs :     Misc.  Thunderstorms  Icing  Turbulence  Mountain Waves  Volcanic Ashes







- Airport Elevation : 65 ft
- IATA code : PIK
- Download approach charts


EGPK - Glasgow Prestwick

CURRENT METAR :
  • 170820Z 05008KT 9999 FEW026 06/04 Q1028

EXPIRED METARs :
  • 170750Z 05008KT 9999 FEW014 07/05 Q1028
  • 170720Z 05007KT 9999 SCT018 07/05 Q1027
  • 170650Z 06006KT 9999 SCT018 08/06 Q1027
  • 170620Z VRB03KT 9999 SCT018 08/07 Q1026
  • 170550Z 07002KT 9999 BKN018 09/07 Q1026

TAF TAF EGPK
Valid from the 17 at 06:00 until the 18 at 06:00 UTC


170504Z 1706/1806 09005KT 9999 SCT018
No reported NOTAMs for that airfield.



MET'MAP, your aeronautical weather chart ! - Copyright ORBIFLY December 2007 - Disclaimer

ORBIFLY MET'MAP TEAM :

Programming & Development : Alexandra Zaïnal
Concept & Development : Baudouin d'Aumeries
Co-Development & Prog : Marc-Olivier Méhu
Technical & hardware support : Manuel Goepfert

Contact : metmap@orbifly.com




SOURCES & CREDITS :

   NOAA